DON PEDRO RESERVOIR (DNP)

Elevation: 830' · TUOLUMNE R basin · Operator: Turlock Irrigation District

Provisional data, subject to change.
Query executed Monday at 21:08:40   clock

Select a sensor type for a plot of data.
Note: Reservoir Flows are daily averages.

Earlier

Date RES ELE    STORAGE    RES CHG    TOC STO    ABV TOC    OUTFLOW    INFLOW    PPT INC   
 FEET   AF   AF   AF   AF   CFS   CFS   INCHES  
08/02/2014 712.96 890520 -- 2030000 -- 2329 557 0.00
08/03/2014 712.62 887720 -- 2030000 -1142280 1514 100 0.00
08/04/2014 712.41 886320 -- 2030000 -1143680 1107 401 0.00
08/05/2014 712.03 883520 -- 2030000 -1146480 1648 239 0.00
08/06/2014 711.43 879340 -- 2030000 -2029121 2369 262 0.00
08/07/2014 710.99 876560 -- 2030000 -1153440 1799 398 0.00
08/08/2014 710.64 873790 -- 2030000 -- 1678 280 0.00
08/09/2014 710.29 871710 -- 2030000 -- 1637 591 0.00
08/10/2014 0.00 868950 -- 2030000 -1161050 1700 307 0.00
08/11/2014 709.40 865510 -- 2030000 -1164490 2011 275 0.00
08/12/2014 709.12 863450 -- 2030000 -1166550 1328 288 0.00
08/13/2014 7.00 860700 -- 2030000 -1169300 1806 424 0.00
08/14/2014 708.17 857280 -- 2030000 -1172720 2199 474 0.00
08/15/2014 707.79 854550 -- 2030000 -- 1599 222 0.00
08/16/2014 707.45 851830 -- 2030000 -- 1603 230 0.00
08/17/2014 707.15 849790 -- 2030000 -1180210 1304 276 0.00
08/18/2014 706.80 847750 -- 2030000 -1182250 1554 527 0.00
08/19/2014 706.62 846400 -- 2030000 -1183600 1015 331 0.00
08/20/2014 706.28 844370 -- 2030000 -1185630 1405 381 0.00
08/21/2014 705.90 847670 -- 2030000 -1182330 1665 303 0.00
08/22/2014 705.38 838300 -- 2030000 -- 2063 364 0.00
08/23/2014 705.11 836280 -- 2030000 -- 1276 259 0.00
08/24/2014 704.76 834270 -- 2030000 -- 1601 586 0.00
08/25/2014 704.53 832260 -- 2030000 -1197740 1148 135 0.00
08/26/2014 704.23 830250 -- 2030000 -1199750 1386 374 0.00
08/27/2014 703.81 827580 -- 2030000 -1202420 1794 447 0.00
08/28/2014 703.48 825580 -- 2030000 -1204420 1687 679 0.00
08/29/2014 -- -- -- -- -- -- -- --
08/30/2014 -- -- -- -- -- -- -- --
08/31/2014 -- -- -- -- -- -- -- --
09/01/2014 -- -- -- -- -- -- -- --

Later | Latest

Warning! This data is preliminary and subject to revision.

Download Data Now Download Data Now | Show DNP Map | Plot DNP Data | 1 Month DNP Data | Real-Time DNP Data | DNP Info